Location: George Washington National Forest Helicopter Landing Site
(38.6463°N, 79.0851°W)
Time: 23:59:40
(UTC-04:00)

Tiros 1 - Pass Details

Date: 31 August 2019
Orbit: 631 x 664 km, 48.4° (Epoch: 14 September)

Event Time Altitude Azimuth Distance (km) Brightness Sun altitude
Rises 23:20:24 0° 275° (W) 2,913 11.0 -35.7°
Reaches altitude 10° 23:22:59 10° 287° (WNW) 2,005 10.2 -36.0°
Enters shadow 23:24:04 15° 296° (WNW) 1,673 9.8 -36.2°
